Weather reports worldwide

Advertisment
Ustica, Italy (16400): temperature & dewpoint: 11.07.2019 01:00:00 - 17.07.2019 01:00:00 (CEST)Ustica, Italy (16400): wind speed: 11.07.2019 01:00:00 - 17.07.2019 01:00:00 (CEST)Ustica, Italy (16400): wind direction: 11.07.2019 01:00:00 - 17.07.2019 01:00:00 (CEST)Ustica, Italy (16400): reduced air pressure: 11.07.2019 01:00:00 - 17.07.2019 01:00:00 (CEST)Ustica, Italy (16400): visibility: 11.07.2019 01:00:00 - 17.07.2019 01:00:00 (CEST)Ustica, Italy (16400): sunshine duration: 11.07.2019 01:00:00 - 17.07.2019 01:00:00 (CEST)
Date & Time tt [°C] td [°C] ff [km/h] ff [kn] dd ppp [hPa] vv [km] sd [min]
17.07.2019 01:00:00 - - - - - - - -
17.07.2019 00:00:00 - - - - - - - -
16.07.2019 23:00:00 - - - - - - - -
16.07.2019 22:00:00 - - - - - - - -
16.07.2019 21:00:00 - - - - - - - -
16.07.2019 20:00:00 23,2 18,5 9 5 N 1011,6 20 30
16.07.2019 19:00:00 24,4 18,6 11 6 N 1010,6 20 60
16.07.2019 18:00:00 25,2 18,2 13 7 N 1010,3 20 60
16.07.2019 17:00:00 25,4 18,4 11 6 N 1009,8 10 60
16.07.2019 16:00:00 26,2 20,3 11 6 N 1008,6 10 60
16.07.2019 15:00:00 27,0 21,1 13 7 N 1009,0 10 60
16.07.2019 14:00:00 25,2 20,2 11 6 N 1007,8 10 60
16.07.2019 13:00:00 29,4 25,6 13 7 N 1007,1 20 60
16.07.2019 12:00:00 22,0 18,0 11 6 N 1007,7 10 48
16.07.2019 11:00:00 19,0 15,5 13 7 N 1006,8 10 0
16.07.2019 10:00:00 20,8 17,2 22 12 NNW 1005,4 10 0
16.07.2019 09:00:00 19,2 15,7 18 10 NW 1005,2 10 0
16.07.2019 08:00:00 19,0 16,2 24 13 W 1005,3 10 0
16.07.2019 07:00:00 - - - - - - - -
16.07.2019 06:00:00 - - - - - - - -
16.07.2019 05:00:00 - - - - - - - -
16.07.2019 04:00:00 - - - - - - - -
16.07.2019 03:00:00 - - - - - - - -
16.07.2019 02:00:00 - - - - - - - -
16.07.2019 01:00:00 - - - - - - - -
16.07.2019 00:00:00 - - - - - - - -
15.07.2019 23:00:00 - - - - - - - -
15.07.2019 22:00:00 - - - - - - - -
15.07.2019 21:00:00 - - - - - - - -
15.07.2019 20:00:00 24,8 21,7 5 3 N 1007,0 20 60
15.07.2019 19:00:00 26,0 20,1 16 9 NNW 1006,8 20 60
15.07.2019 18:00:00 26,0 22,3 13 7 NNW 1006,6 20 60
15.07.2019 17:00:00 27,0 23,3 9 5 - 1006,3 20 60
15.07.2019 16:00:00 29,0 24,1 13 7 N 1005,0 20 60
15.07.2019 15:00:00 29,0 23,0 15 8 W 1005,6 20 60
15.07.2019 14:00:00 28,0 22,0 15 8 WSW 1005,6 20 60
15.07.2019 13:00:00 28,0 24,2 21 11 SW 1005,2 20 60
15.07.2019 12:00:00 27,6 22,7 22 12 SW 1006,2 20 48
15.07.2019 11:00:00 26,8 23,0 22 12 SW 1006,2 10 30
15.07.2019 10:00:00 26,4 23,4 18 10 SW 1006,3 10 18
15.07.2019 09:00:00 25,0 22,0 21 11 SW 1006,4 10 12
15.07.2019 08:00:00 24,2 20,2 29 16 SSW 1006,1 10 0
15.07.2019 07:00:00 - - - - - - - -
15.07.2019 06:00:00 - - - - - - - -
15.07.2019 05:00:00 - - - - - - - -
15.07.2019 04:00:00 - - - - - - - -
15.07.2019 03:00:00 - - - - - - - -
15.07.2019 02:00:00 - - - - - - - -
15.07.2019 01:00:00 - - - - - - - -
15.07.2019 00:00:00 - - - - - - - -
14.07.2019 23:00:00 - - - - - - - -
14.07.2019 22:00:00 - - - - - - - -
14.07.2019 21:00:00 - - - - - - - -
14.07.2019 20:00:00 25,6 22,9 5 3 NNE 1009,2 10 0
14.07.2019 19:00:00 26,2 22,9 9 5 ENE 1008,5 10 12
14.07.2019 18:00:00 26,2 23,2 8 4 ENE 1008,9 10 24
14.07.2019 17:00:00 26,4 23,1 9 5 E 1009,5 10 12
14.07.2019 16:00:00 26,4 22,3 4 2 N 1010,0 10 12
14.07.2019 15:00:00 27,0 22,3 5 3 N 1010,4 10 12
14.07.2019 14:00:00 29,4 23,8 5 3 - 1011,0 20 36
14.07.2019 13:00:00 30,2 23,8 8 4 N 1010,8 20 48
14.07.2019 12:00:00 29,6 24,5 5 3 N 1010,5 20 36
14.07.2019 11:00:00 29,2 24,7 5 3 N 1010,8 20 48
14.07.2019 10:00:00 28,0 24,0 5 3 N 1010,2 20 48
14.07.2019 09:00:00 27,2 23,4 5 3 N 1009,6 20 24
14.07.2019 08:00:00 26,2 22,3 5 3 N 1009,3 20 12
14.07.2019 07:00:00 - - - - - - - -
14.07.2019 06:00:00 - - - - - - - -
14.07.2019 05:00:00 - - - - - - - -
14.07.2019 04:00:00 - - - - - - - -
14.07.2019 03:00:00 - - - - - - - -
14.07.2019 02:00:00 - - - - - - - -
14.07.2019 01:00:00 - - - - - - - -
14.07.2019 00:00:00 - - - - - - - -
13.07.2019 23:00:00 - - - - - - - -
13.07.2019 22:00:00 - - - - - - - -
13.07.2019 21:00:00 - - - - - - - -
13.07.2019 20:00:00 25,2 22,5 22 12 SW 1009,9 20 30
13.07.2019 19:00:00 26,0 22,7 22 12 SW 1009,8 20 48
13.07.2019 18:00:00 27,2 22,3 22 12 SW 1010,0 20 60
13.07.2019 17:00:00 29,0 21,6 16 9 WSW 1010,4 20 60
13.07.2019 16:00:00 29,4 23,2 22 12 WSW 1011,2 20 60
13.07.2019 15:00:00 29,4 23,8 16 9 W 1011,6 20 60
13.07.2019 14:00:00 29,4 24,0 13 7 W 1011,7 20 60
13.07.2019 13:00:00 29,2 25,2 8 4 N 1011,9 20 30
13.07.2019 12:00:00 27,8 24,6 21 11 SW 1012,5 20 24
13.07.2019 11:00:00 27,6 23,8 21 11 SSW 1012,1 20 60
13.07.2019 10:00:00 27,2 23,1 16 9 S 1011,6 20 60
13.07.2019 09:00:00 26,2 22,1 15 8 SSW 1012,3 20 60
13.07.2019 08:00:00 25,2 21,0 13 7 SSW 1012,6 20 12
13.07.2019 07:00:00 - - - - - - - -
13.07.2019 06:00:00 - - - - - - - -
13.07.2019 05:00:00 - - - - - - - -
13.07.2019 04:00:00 - - - - - - - -
13.07.2019 03:00:00 - - - - - - - -
13.07.2019 02:00:00 - - - - - - - -
13.07.2019 01:00:00 - - - - - - - -
13.07.2019 00:00:00 - - - - - - - -
12.07.2019 23:00:00 - - - - - - - -
12.07.2019 22:00:00 - - - - - - - -
12.07.2019 21:00:00 - - - - - - - -
12.07.2019 20:00:00 25,4 22,7 16 9 WSW 1013,2 20 24
12.07.2019 19:00:00 26,2 23,8 18 10 WSW 1012,9 20 36
12.07.2019 18:00:00 26,8 24,1 15 8 WSW 1012,9 20 60
12.07.2019 17:00:00 28,2 23,3 9 5 - 1013,3 20 60
12.07.2019 16:00:00 28,2 23,9 11 6 WSW 1013,6 20 60
12.07.2019 15:00:00 28,2 23,9 9 5 W 1013,9 20 60
12.07.2019 14:00:00 28,4 24,7 11 6 N 1013,9 20 48
12.07.2019 13:00:00 27,4 23,6 13 7 SW 1014,3 20 48
12.07.2019 12:00:00 27,4 23,3 13 7 SW 1014,4 20 48
12.07.2019 11:00:00 27,6 23,8 8 4 N 1014,5 20 48
12.07.2019 10:00:00 26,6 23,3 8 4 N 1014,1 20 48
12.07.2019 09:00:00 26,2 22,7 8 4 W 1014,2 20 48
12.07.2019 08:00:00 25,2 22,7 8 4 W 1014,3 20 12
12.07.2019 07:00:00 - - - - - - - -
12.07.2019 06:00:00 - - - - - - - -
12.07.2019 05:00:00 - - - - - - - -
12.07.2019 04:00:00 - - - - - - - -
12.07.2019 03:00:00 - - - - - - - -
12.07.2019 02:00:00 - - - - - - - -
12.07.2019 01:00:00 - - - - - - - -
12.07.2019 00:00:00 - - - - - - - -
11.07.2019 23:00:00 - - - - - - - -
11.07.2019 22:00:00 - - - - - - - -
11.07.2019 21:00:00 - - - - - - - -
11.07.2019 20:00:00 26,0 22,7 5 3 NNW 1013,7 20 24
11.07.2019 19:00:00 26,6 22,5 5 3 N 1013,4 20 60
11.07.2019 18:00:00 27,4 23,3 8 4 N 1013,4 20 60
11.07.2019 17:00:00 27,4 22,5 5 3 - 1013,4 20 60
11.07.2019 16:00:00 27,4 22,5 8 4 N 1013,4 20 60
11.07.2019 15:00:00 26,6 21,3 4 2 N 1013,6 20 60
11.07.2019 14:00:00 26,4 21,1 4 2 N 1014,1 20 60
11.07.2019 13:00:00 26,8 20,6 4 2 N 1013,9 20 60
11.07.2019 12:00:00 28,0 21,3 4 2 N 1013,7 20 60
11.07.2019 11:00:00 28,6 21,7 4 2 - 1013,2 20 60
11.07.2019 10:00:00 27,6 22,1 5 3 N 1013,0 20 60
11.07.2019 09:00:00 27,4 22,2 5 3 N 1012,7 20 60
11.07.2019 08:00:00 26,2 22,1 5 3 NNE 1012,8 20 -
11.07.2019 07:00:00 - - - - - - - -
11.07.2019 06:00:00 - - - - - - - -
11.07.2019 05:00:00 - - - - - - - -
11.07.2019 04:00:00 - - - - - - - -
11.07.2019 03:00:00 - - - - - - - -
11.07.2019 02:00:00 - - - - - - - -
11.07.2019 01:00:00 - - - - - - - -

tt = temperature
td = dewpoint
ff = wind speed
dd = wind direction
ppp = reduced air pressure
vv = visibility
sd = sunshine duration

Next stations